GFSNGP_500_temp_087.txt.gz
Temp
-22 -21 -21 -21 -20 -20 -20 -20 -20 -20 -19 -19 -19 -17 -17 -17 -16 -16 -16 -16 -17 -17 -16 -16 -16 -15 -15 -15 -15 -15 -14 -14 -15 -16 -16 -15 -15 -15 -15 -15 -15 -14 -14 -15
-23 -22 -22 -22 -21 -21 -21 -21 -20 -20 -20 -19 -18 -18 -18 -17 -17 -16 -16 -16 -17 -17 -16 -16 -16 -16 -15 -16 -15 -15 -14 -15 -15 -15 -15 -15 -15 -14 -14 -14 -14 -15 -15 -15
-22 -22 -22 -22 -22 -22 -22 -21 -20 -20 -20 -19 -19 -18 -18 -18 -17 -17 -16 -16 -16 -17 -17 -16 -16 -16 -16 -16 -16 -15 -15 -15 -15 -15 -15 -15 -15 -15 -14 -14 -14 -15 -15 -15
-23 -22 -22 -22 -22 -22 -22 -21 -21 -20 -20 -19 -19 -18 -18 -18 -17 -17 -16 -16 -16 -17 -17 -17 -17 -16 -16 -15 -15 -15 -15 -15 -15 -15 -15 -15 -15 -14 -14 -14 -14 -15 -15 -15
-23 -23 -22 -22 -22 -22 -22 -21 -21 -20 -20 -19 -19 -19 -18 -18 -18 -17 -17 -17 -17 -17 -17 -17 -16 -16 -15 -15 -15 -15 -15 -15 -15 -15 -15 -15 -15 -14 -14 -14 -15 -15 -15 -15
-24 -23 -23 -23 -22 -23 -22 -22 -21 -21 -20 -19 -19 -19 -18 -18 -18 -18 -17 -17 -17 -16 -17 -16 -15 -15 -15 -15 -15 -15 -15 -15 -15 -15 -15 -15 -15 -15 -14 -14 -14 -15 -15 -15
-24 -24 -23 -23 -23 -23 -22 -22 -21 -21 -20 -20 -19 -19 -19 -18 -18 -18 -18 -18 -17 -17 -16 -15 -16 -15 -15 -15 -15 -15 -15 -15 -15 -15 -14 -15 -14 -14 -14 -14 -15 -15 -15 -15
-24 -24 -24 -23 -23 -22 -22 -22 -21 -21 -20 -20 -19 -19 -19 -18 -18 -18 -18 -17 -17 -17 -17 -17 -16 -15 -15 -14 -14 -15 -15 -14 -15 -14 -14 -14 -14 -14 -14 -15 -15 -15 -15 -15
-24 -24 -24 -23 -22 -22 -22 -22 -21 -21 -21 -20 -19 -19 -19 -19 -18 -18 -18 -18 -17 -17 -17 -17 -16 -16 -16 -15 -14 -15 -16 -15 -15 -15 -15 -14 -15 -14 -15 -15 -15 -15 -16 -15
-24 -24 -23 -23 -23 -22 -22 -22 -21 -21 -21 -20 -20 -20 -19 -19 -19 -18 -18 -18 -18 -18 -18 -18 -17 -17 -17 -16 -16 -15 -14 -15 -15 -15 -15 -15 -15 -15 -15 -15 -15 -15 -16 -17
-24 -24 -24 -23 -23 -23 -22 -22 -22 -21 -21 -21 -20 -20 -19 -19 -19 -19 -19 -19 -19 -19 -18 -18 -18 -18 -17 -17 -17 -17 -17 -16 -16 -17 -17 -16 -17 -16 -17 -17 -18 -18 -18 -18
-24 -24 -24 -23 -23 -23 -23 -22 -22 -22 -21 -21 -21 -20 -21 -21 -21 -20 -20 -20 -20 -20 -20 -19 -18 -19 -19 -18 -18 -18 -18 -18 -18 -18 -18 -18 -19 -19 -19 -19 -19 -19 -19 -19
-25 -24 -24 -23 -23 -23 -23 -22 -23 -22 -22 -22 -22 -21 -21 -21 -21 -20 -21 -20 -21 -20 -20 -20 -20 -20 -20 -20 -20 -20 -20 -20 -20 -20 -20 -20 -20 -20 -20 -19 -19 -19 -20 -20
-25 -25 -24 -24 -24 -24 -23 -23 -23 -23 -22 -23 -22 -22 -22 -21 -21 -21 -21 -21 -21 -21 -21 -21 -21 -20 -20 -21 -21 -21 -20 -20 -20 -20 -20 -20 -20 -20 -20 -20 -20 -20 -20 -20
-25 -25 -25 -25 -24 -24 -23 -24 -24 -23 -23 -23 -22 -22 -22 -22 -22 -22 -21 -21 -21 -22 -22 -22 -21 -21 -21 -21 -21 -21 -21 -21 -21 -21 -21 -21 -21 -21 -21 -21 -21 -21 -21 -21
-25 -25 -25 -24 -24 -24 -24 -24 -24 -23 -23 -23 -23 -23 -23 -22 -22 -22 -22 -22 -22 -22 -22 -22 -22 -21 -21 -21 -21 -21 -21 -21 -21 -21 -21 -21 -22 -22 -22 -22 -22 -22 -22 -22
-25 -25 -25 -24 -24 -24 -24 -24 -23 -23 -23 -23 -23 -23 -23 -23 -23 -23 -23 -22 -22 -22 -22 -22 -22 -22 -22 -22 -22 -22 -22 -22 -22 -22 -22 -22 -22 -22 -22 -22 -22 -22 -22 -22
-25 -24 -24 -24 -24 -24 -24 -24 -24 -23 -23 -23 -23 -23 -23 -23 -23 -23 -23 -23 -23 -23 -23 -23 -23 -23 -23 -23 -22 -22 -22 -22 -22 -22 -22 -23 -23 -23 -23 -23 -23 -23 -23 -23
-25 -25 -24 -24 -24 -24 -24 -24 -23 -23 -23 -23 -23 -23 -23 -23 -23 -23 -23 -23 -23 -23 -23 -23 -23 -23 -23 -23 -23 -23 -23 -23 -23 -23 -23 -23 -24 -24 -24 -24 -24 -24 -24 -24
-24 -24 -24 -24 -24 -24 -24 -24 -24 -24 -24 -24 -24 -24 -24 -24 -24 -24 -24 -24 -24 -24 -24 -24 -24 -24 -24 -24 -24 -24 -24 -24 -24 -24 -25 -25 -25 -25 -25 -25 -25 -25 -25 -26
-24 -24 -24 -24 -24 -24 -24 -24 -24 -24 -24 -24 -24 -24 -24 -24 -25 -25 -24 -24 -24 -24 -24 -25 -25 -25 -25 -25 -25 -25 -25 -25 -25 -25 -25 -25 -26 -26 -26 -26 -26 -26 -27 -27
-25 -25 -25 -25 -24 -24 -24 -24 -24 -24 -24 -24 -24 -25 -25 -25 -25 -25 -25 -25 -25 -25 -25 -26 -26 -26 -26 -26 -26 -26 -26 -27 -27 -27 -27 -27 -27 -27 -28 -28 -28 -28 -28 -28
-25 -25 -25 -25 -25 -24 -24 -24 -25 -25 -25 -25 -25 -25 -25 -25 -25 -25 -26 -26 -26 -26 -27 -27 -27 -28 -28 -28 -28 -28 -28 -28 -29 -29 -29 -29 -29 -29 -29 -29 -29 -29 -29 -29
-25 -25 -25 -25 -25 -25 -25 -25 -25 -24 -25 -25 -25 -26 -26 -26 -27 -27 -27 -28 -28 -28 -29 -29 -29 -29 -29 -29 -29 -30 -30 -30 -30 -30 -30 -30 -30 -30 -30 -30 -30 -31 -31 -31
-25 -25 -25 -25 -25 -25 -25 -25 -25 -26 -26 -26 -27 -27 -27 -28 -28 -29 -29 -29 -30 -30 -30 -30 -30 -30 -30 -30 -30 -31 -31 -31 -31 -31 -31 -31 -32 -32 -32 -32 -33 -33 -33 -34
-25 -25 -25 -25 -25 -26 -26 -26 -26 -26 -27 -27 -28 -28 -28 -29 -29 -30 -30 -30 -31 -31 -31 -31 -31 -31 -31 -32 -32 -32 -32 -32 -33 -33 -33 -33 -34 -34 -34 -34 -34 -34 -34 -34
-25 -25 -26 -26 -26 -26 -26 -26 -27 -27 -28 -28 -28 -29 -29 -30 -30 -31 -31 -31 -31 -32 -32 -32 -33 -33 -34 -34 -34 -34 -34 -35 -35 -35 -35 -35 -35 -35 -35 -35 -35 -34 -34 -34

GFSNGP_500_temp_090.txt.gz
Temp
-22 -22 -21 -21 -20 -21 -20 -19 -19 -19 -19 -19 -18 -18 -18 -18 -18 -17 -17 -16 -16 -16 -16 -16 -17 -16 -16 -16 -15 -16 -15 -15 -15 -15 -16 -16 -16 -16 -15 -15 -14 -14 -14 -14
-22 -22 -21 -21 -21 -21 -20 -20 -20 -20 -19 -19 -19 -19 -18 -19 -18 -18 -17 -17 -16 -16 -16 -17 -17 -16 -16 -16 -16 -15 -15 -15 -15 -15 -15 -16 -16 -16 -16 -15 -15 -14 -14 -14
-23 -22 -22 -21 -21 -20 -21 -21 -20 -20 -19 -19 -19 -19 -19 -18 -18 -18 -17 -16 -16 -16 -16 -17 -17 -16 -16 -16 -15 -15 -15 -15 -15 -15 -15 -15 -16 -16 -16 -15 -15 -15 -15 -15
-22 -22 -22 -22 -22 -22 -22 -21 -21 -20 -20 -20 -20 -19 -19 -18 -18 -18 -17 -17 -16 -15 -16 -17 -16 -16 -17 -16 -16 -16 -15 -16 -15 -15 -16 -15 -16 -16 -15 -15 -15 -15 -15 -15
-23 -22 -22 -22 -22 -22 -22 -21 -21 -21 -20 -20 -19 -19 -19 -18 -18 -18 -17 -17 -17 -16 -16 -17 -17 -17 -16 -16 -16 -16 -15 -16 -16 -16 -16 -15 -15 -15 -15 -15 -15 -15 -15 -15
-23 -23 -23 -23 -22 -21 -22 -21 -21 -21 -20 -20 -20 -19 -19 -19 -18 -18 -17 -17 -17 -17 -17 -17 -17 -17 -17 -16 -16 -16 -16 -15 -15 -15 -15 -15 -15 -15 -15 -15 -15 -15 -15 -15
-24 -23 -23 -22 -22 -22 -22 -21 -21 -21 -21 -20 -20 -20 -19 -19 -18 -18 -18 -18 -17 -17 -17 -17 -16 -16 -17 -16 -16 -16 -16 -15 -14 -14 -14 -15 -14 -14 -15 -15 -15 -15 -14 -15
-23 -23 -23 -23 -22 -22 -22 -22 -22 -21 -21 -21 -20 -20 -19 -19 -19 -19 -18 -18 -18 -17 -17 -17 -17 -16 -16 -16 -15 -15 -15 -15 -15 -14 -14 -14 -15 -15 -15 -15 -15 -15 -14 -14
-24 -24 -23 -23 -23 -23 -22 -22 -22 -21 -21 -21 -20 -20 -20 -19 -19 -19 -19 -18 -18 -17 -17 -17 -17 -17 -17 -17 -16 -16 -15 -15 -14 -14 -14 -14 -14 -14 -14 -14 -15 -15 -15 -15
-24 -24 -24 -23 -23 -23 -22 -22 -22 -22 -21 -21 -21 -20 -20 -20 -19 -19 -19 -18 -18 -18 -18 -18 -18 -18 -18 -18 -17 -17 -17 -16 -16 -15 -15 -15 -15 -15 -15 -14 -15 -14 -14 -15
-24 -24 -24 -23 -23 -23 -22 -22 -22 -22 -21 -21 -21 -21 -20 -20 -20 -19 -19 -19 -19 -19 -19 -19 -19 -19 -19 -18 -18 -18 -18 -17 -17 -17 -16 -16 -15 -15 -15 -15 -16 -16 -15 -16
-24 -24 -24 -24 -23 -23 -23 -23 -22 -22 -22 -22 -21 -21 -21 -21 -21 -21 -21 -21 -20 -20 -20 -20 -20 -20 -20 -20 -20 -19 -19 -18 -18 -17 -17 -17 -17 -17 -17 -17 -17 -18 -18 -18
-24 -24 -24 -24 -24 -23 -23 -23 -22 -23 -22 -22 -22 -22 -22 -22 -22 -21 -21 -21 -21 -21 -21 -21 -21 -21 -20 -20 -20 -20 -20 -20 -20 -20 -19 -19 -19 -20 -20 -19 -20 -20 -20 -20
-25 -24 -24 -24 -24 -23 -23 -23 -23 -23 -23 -22 -22 -23 -23 -22 -22 -22 -21 -21 -21 -21 -21 -21 -21 -21 -21 -21 -21 -21 -21 -21 -21 -21 -21 -21 -21 -21 -21 -21 -21 -21 -20 -20
-25 -25 -25 -25 -25 -24 -24 -23 -23 -23 -23 -23 -23 -23 -22 -22 -22 -22 -22 -22 -22 -22 -22 -22 -22 -22 -22 -21 -21 -21 -21 -21 -21 -21 -21 -21 -21 -21 -21 -21 -21 -21 -21 -21
-25 -25 -25 -25 -25 -25 -25 -24 -24 -23 -23 -23 -23 -23 -23 -23 -23 -23 -23 -22 -22 -22 -23 -23 -22 -22 -22 -22 -22 -22 -22 -22 -22 -22 -22 -22 -22 -22 -22 -22 -22 -22 -22 -22
-25 -25 -25 -25 -25 -24 -24 -24 -24 -24 -24 -23 -23 -23 -23 -23 -23 -23 -23 -23 -23 -23 -23 -23 -23 -23 -23 -22 -22 -22 -22 -22 -22 -22 -22 -22 -22 -22 -22 -22 -22 -22 -22 -22
-25 -25 -25 -25 -25 -24 -24 -24 -24 -24 -24 -24 -23 -23 -23 -23 -23 -23 -23 -23 -23 -23 -23 -23 -23 -23 -23 -23 -23 -23 -23 -23 -23 -23 -23 -23 -23 -23 -23 -23 -23 -23 -23 -23
-25 -25 -25 -25 -25 -24 -24 -24 -24 -24 -23 -23 -24 -23 -23 -23 -23 -23 -23 -23 -23 -23 -23 -23 -23 -23 -23 -23 -23 -24 -24 -24 -24 -24 -24 -24 -24 -24 -24 -24 -24 -24 -24 -25
-25 -25 -24 -24 -24 -24 -24 -24 -24 -24 -24 -24 -24 -24 -24 -24 -24 -24 -24 -24 -24 -24 -24 -24 -24 -24 -24 -24 -24 -24 -24 -24 -25 -25 -25 -25 -25 -25 -25 -25 -25 -25 -25 -25
-25 -24 -24 -24 -24 -24 -24 -24 -24 -24 -24 -24 -24 -24 -24 -24 -24 -24 -24 -24 -24 -24 -24 -24 -24 -25 -25 -25 -25 -25 -25 -25 -25 -25 -26 -26 -26 -26 -26 -26 -27 -27 -27 -27
-25 -25 -25 -25 -25 -25 -24 -24 -24 -24 -24 -24 -24 -24 -24 -24 -24 -25 -25 -25 -25 -25 -25 -25 -25 -26 -26 -26 -26 -26 -27 -27 -27 -28 -28 -28 -28 -28 -28 -28 -28 -28 -28 -28
-25 -25 -25 -25 -24 -24 -24 -24 -24 -24 -24 -24 -24 -24 -25 -25 -25 -25 -26 -26 -26 -26 -26 -27 -27 -27 -28 -28 -28 -28 -28 -29 -29 -29 -29 -29 -29 -29 -29 -30 -30 -30 -30 -30
-25 -25 -25 -25 -25 -25 -24 -24 -24 -24 -25 -25 -25 -25 -26 -26 -26 -27 -26 -26 -27 -27 -28 -29 -29 -30 -30 -30 -30 -30 -30 -30 -30 -30 -30 -30 -30 -30 -30 -30 -30 -31 -31 -31
-25 -25 -25 -25 -25 -25 -25 -25 -25 -25 -26 -26 -26 -26 -26 -26 -27 -27 -27 -28 -29 -29 -30 -30 -30 -30 -31 -31 -31 -31 -31 -31 -31 -31 -31 -32 -32 -32 -32 -32 -32 -33 -33 -33
-25 -25 -25 -25 -25 -25 -25 -26 -26 -26 -26 -26 -27 -27 -28 -28 -28 -29 -29 -30 -30 -31 -31 -31 -31 -32 -32 -32 -33 -33 -33 -33 -34 -34 -34 -34 -34 -34 -34 -35 -35 -35 -35 -35
-25 -25 -25 -25 -26 -26 -26 -26 -26 -27 -27 -27 -28 -28 -28 -29 -29 -30 -30 -31 -31 -31 -32 -33 -33 -34 -34 -34 -35 -35 -35 -35 -35 -36 -36 -36 -36 -36 -36 -36 -36 -36 -36 -35

GFSNGP_500_temp_093.txt.gz
Temp
-26 -24 -23 -22 -21 -21 -20 -19 -20 -19 -19 -19 -18 -18 -17 -18 -18 -18 -18 -17 -17 -16 -16 -16 -15 -16 -16 -16 -15 -15 -16 -16 -16 -15 -15 -15 -16 -16 -17 -16 -16 -15 -15 -15
-26 -25 -24 -23 -22 -21 -21 -20 -20 -20 -19 -19 -19 -19 -19 -19 -18 -18 -18 -17 -16 -16 -16 -16 -16 -16 -16 -16 -16 -16 -17 -16 -15 -15 -15 -15 -15 -16 -16 -16 -16 -15 -15 -15
-25 -25 -23 -23 -22 -22 -21 -20 -20 -19 -19 -20 -20 -19 -19 -18 -18 -18 -18 -18 -17 -16 -16 -16 -16 -17 -17 -16 -16 -16 -16 -16 -15 -15 -15 -15 -15 -16 -16 -16 -16 -16 -15 -15
-25 -24 -24 -23 -22 -21 -21 -20 -21 -21 -20 -20 -19 -19 -19 -19 -18 -18 -18 -18 -17 -16 -16 -16 -16 -16 -17 -17 -17 -16 -16 -16 -16 -15 -15 -15 -15 -15 -16 -16 -16 -16 -16 -16
-24 -23 -22 -23 -21 -22 -22 -21 -21 -21 -21 -20 -20 -20 -19 -19 -18 -18 -18 -18 -18 -18 -17 -16 -16 -17 -17 -17 -17 -16 -16 -16 -16 -15 -15 -15 -15 -15 -15 -16 -16 -16 -16 -16
-23 -23 -22 -23 -22 -22 -22 -22 -22 -21 -21 -20 -20 -20 -19 -19 -19 -19 -18 -18 -18 -18 -17 -17 -16 -16 -17 -17 -17 -16 -16 -16 -16 -16 -16 -16 -16 -16 -16 -16 -16 -16 -16 -16
-23 -23 -23 -22 -22 -22 -22 -22 -21 -21 -21 -21 -20 -20 -20 -19 -19 -19 -18 -18 -18 -18 -18 -18 -17 -17 -17 -17 -16 -16 -16 -16 -16 -15 -16 -15 -15 -16 -16 -16 -15 -15 -15 -15
-23 -23 -23 -23 -23 -23 -22 -22 -22 -22 -21 -21 -21 -20 -20 -20 -19 -19 -19 -19 -18 -18 -18 -17 -17 -17 -17 -17 -17 -17 -16 -16 -16 -16 -16 -15 -14 -14 -15 -15 -16 -16 -15 -15
-23 -24 -23 -23 -22 -22 -22 -22 -22 -22 -21 -21 -21 -21 -20 -20 -20 -19 -19 -19 -19 -19 -18 -18 -18 -18 -17 -17 -17 -17 -17 -16 -16 -16 -16 -15 -16 -16 -15 -15 -15 -15 -15 -15
-24 -24 -23 -23 -23 -23 -22 -22 -22 -22 -21 -21 -21 -21 -20 -20 -20 -19 -19 -19 -19 -19 -19 -19 -18 -18 -18 -18 -18 -18 -18 -18 -17 -17 -16 -16 -16 -16 -16 -15 -15 -15 -15 -15
-24 -24 -24 -24 -24 -23 -23 -23 -22 -22 -22 -21 -21 -21 -21 -20 -20 -20 -20 -20 -20 -19 -20 -20 -20 -20 -19 -19 -19 -19 -19 -18 -18 -18 -17 -17 -18 -18 -17 -17 -17 -17 -17 -17
-24 -24 -24 -23 -23 -23 -23 -23 -22 -22 -22 -22 -22 -22 -21 -21 -21 -21 -21 -21 -21 -21 -20 -20 -20 -20 -21 -20 -20 -20 -20 -20 -19 -19 -19 -18 -18 -18 -18 -18 -17 -18 -17 -17
-24 -24 -24 -24 -23 -23 -23 -23 -23 -22 -22 -22 -22 -22 -22 -22 -22 -22 -22 -22 -22 -21 -21 -21 -21 -21 -21 -21 -21 -21 -21 -21 -20 -20 -20 -20 -20 -20 -20 -19 -19 -19 -19 -19
-24 -24 -24 -24 -24 -24 -23 -23 -23 -23 -23 -23 -23 -23 -23 -23 -23 -22 -22 -22 -22 -22 -22 -21 -21 -21 -21 -21 -21 -21 -21 -21 -21 -21 -22 -22 -21 -21 -21 -21 -21 -21 -21 -21
-25 -24 -24 -24 -24 -24 -24 -24 -24 -23 -23 -23 -23 -23 -23 -24 -23 -23 -23 -23 -22 -22 -22 -22 -22 -22 -22 -22 -22 -22 -22 -22 -21 -21 -21 -21 -21 -22 -22 -22 -22 -22 -22 -22
-25 -25 -25 -25 -25 -25 -25 -25 -25 -24 -24 -24 -24 -24 -24 -24 -24 -23 -23 -23 -23 -23 -23 -23 -23 -23 -23 -23 -22 -22 -22 -22 -22 -22 -22 -22 -22 -22 -22 -22 -22 -22 -22 -22
-25 -25 -25 -25 -25 -25 -25 -25 -25 -25 -24 -24 -24 -24 -24 -24 -24 -24 -24 -24 -24 -24 -23 -23 -23 -23 -23 -23 -23 -23 -23 -23 -23 -23 -23 -23 -23 -23 -23 -23 -23 -22 -22 -23
-26 -26 -25 -25 -25 -25 -25 -25 -24 -24 -24 -24 -24 -24 -24 -24 -24 -24 -24 -24 -24 -24 -24 -24 -24 -24 -23 -23 -23 -23 -23 -23 -23 -23 -23 -23 -23 -23 -23 -23 -23 -23 -23 -23
-25 -25 -25 -25 -25 -25 -25 -25 -25 -25 -24 -24 -24 -24 -24 -24 -24 -24 -24 -24 -24 -24 -24 -24 -24 -24 -24 -24 -24 -24 -24 -24 -24 -24 -24 -24 -24 -24 -24 -24 -24 -24 -24 -24
-25 -25 -25 -25 -25 -25 -25 -25 -24 -24 -24 -24 -24 -24 -24 -24 -24 -24 -24 -24 -24 -24 -24 -24 -24 -24 -24 -24 -24 -24 -24 -24 -25 -25 -25 -25 -25 -25 -25 -25 -25 -25 -25 -25
-25 -25 -25 -25 -25 -25 -25 -25 -24 -24 -24 -24 -24 -24 -24 -24 -24 -24 -24 -24 -24 -24 -24 -24 -25 -25 -25 -25 -25 -25 -25 -25 -25 -26 -26 -26 -26 -26 -27 -27 -27 -27 -27 -27
-25 -25 -25 -25 -25 -25 -25 -25 -25 -25 -25 -25 -24 -24 -24 -24 -24 -24 -25 -25 -25 -25 -25 -25 -25 -25 -26 -26 -26 -26 -26 -27 -27 -28 -28 -28 -28 -29 -29 -29 -29 -29 -29 -29
-25 -25 -25 -25 -25 -25 -25 -25 -25 -25 -25 -24 -24 -24 -25 -25 -25 -25 -25 -26 -26 -26 -26 -26 -27 -27 -27 -27 -28 -28 -29 -29 -30 -30 -30 -30 -30 -30 -30 -30 -30 -30 -30 -30
-26 -25 -25 -25 -25 -25 -25 -25 -25 -25 -25 -25 -25 -25 -25 -26 -26 -26 -27 -27 -27 -27 -28 -28 -28 -29 -29 -30 -30 -30 -30 -30 -31 -31 -31 -31 -31 -31 -32 -32 -32 -32 -32 -32
-25 -25 -25 -25 -25 -25 -25 -25 -25 -25 -25 -26 -26 -26 -26 -26 -26 -26 -27 -28 -28 -29 -29 -30 -30 -30 -30 -31 -31 -31 -32 -32 -32 -33 -33 -33 -34 -34 -34 -34 -34 -34 -34 -34
-25 -25 -25 -25 -25 -25 -25 -25 -26 -26 -26 -26 -26 -27 -27 -28 -28 -28 -29 -29 -30 -30 -31 -31 -31 -31 -32 -32 -33 -33 -34 -34 -35 -35 -35 -35 -35 -35 -35 -35 -35 -36 -36 -36
-25 -25 -25 -25 -25 -26 -26 -26 -26 -27 -27 -27 -27 -27 -27 -28 -28 -29 -30 -30 -31 -31 -31 -32 -33 -33 -34 -35 -35 -35 -35 -35 -35 -36 -36 -36 -36 -36 -37 -37 -37 -37 -37 -37

GFSNGP_500_temp_096.txt.gz
Temp
-25 -26 -26 -26 -25 -24 -22 -22 -21 -20 -20 -20 -19 -19 -19 -18 -18 -18 -18 -17 -17 -17 -16 -15 -15 -15 -15 -15 -15 -16 -16 -15 -16 -16 -16 -16 -16 -16 -16 -16 -16 -16 -16 -16
-25 -26 -26 -25 -24 -24 -22 -21 -21 -21 -20 -20 -20 -19 -19 -19 -18 -18 -18 -18 -17 -17 -17 -16 -15 -15 -15 -15 -15 -15 -15 -16 -15 -16 -16 -16 -16 -16 -16 -16 -16 -16 -16 -16
-26 -26 -26 -24 -24 -24 -22 -21 -21 -20 -19 -20 -19 -19 -19 -19 -19 -19 -18 -17 -17 -17 -16 -16 -16 -16 -15 -15 -15 -15 -15 -15 -15 -15 -16 -16 -15 -16 -16 -16 -16 -16 -16 -16
-26 -26 -25 -24 -23 -23 -22 -21 -21 -20 -20 -20 -20 -19 -19 -19 -19 -19 -18 -18 -17 -17 -16 -16 -16 -16 -16 -15 -15 -16 -16 -16 -16 -16 -16 -15 -15 -15 -15 -15 -16 -15 -16 -16
-26 -24 -23 -22 -22 -22 -22 -21 -21 -21 -21 -21 -20 -20 -19 -19 -19 -19 -18 -18 -18 -18 -17 -17 -16 -16 -16 -16 -16 -16 -16 -15 -15 -16 -16 -16 -15 -14 -15 -15 -15 -15 -15 -15
-24 -24 -23 -22 -22 -22 -21 -22 -22 -21 -22 -21 -21 -20 -19 -19 -19 -19 -19 -18 -18 -18 -18 -17 -17 -16 -16 -16 -17 -17 -16 -17 -16 -16 -16 -15 -16 -15 -15 -15 -15 -16 -16 -16
-23 -24 -24 -22 -22 -23 -23 -22 -22 -22 -21 -21 -20 -20 -20 -20 -19 -19 -19 -18 -18 -18 -18 -18 -17 -17 -17 -16 -16 -16 -16 -17 -17 -17 -16 -16 -16 -16 -15 -16 -16 -16 -16 -16
-23 -24 -24 -22 -23 -23 -23 -22 -22 -22 -21 -21 -21 -20 -20 -20 -20 -19 -19 -19 -19 -19 -18 -18 -18 -17 -17 -17 -17 -17 -16 -17 -17 -17 -16 -17 -16 -17 -16 -16 -16 -16 -16 -16
-24 -24 -23 -23 -23 -23 -23 -22 -22 -22 -22 -22 -21 -21 -21 -20 -20 -20 -19 -19 -19 -19 -19 -18 -18 -18 -18 -17 -17 -17 -17 -17 -17 -17 -17 -16 -16 -16 -16 -16 -16 -16 -16 -16
-24 -24 -23 -23 -23 -22 -23 -23 -23 -22 -22 -21 -21 -21 -21 -21 -20 -20 -20 -19 -19 -19 -19 -19 -19 -19 -18 -18 -18 -18 -17 -17 -17 -17 -17 -17 -17 -17 -16 -16 -16 -16 -16 -16
-24 -24 -24 -24 -23 -23 -23 -23 -22 -22 -22 -21 -21 -21 -21 -21 -21 -20 -20 -20 -20 -20 -20 -20 -20 -20 -19 -19 -19 -19 -19 -19 -18 -18 -18 -18 -17 -17 -17 -17 -17 -17 -17 -16
-24 -24 -24 -24 -24 -23 -23 -23 -23 -22 -22 -22 -22 -22 -22 -21 -21 -21 -21 -21 -21 -21 -21 -21 -21 -21 -21 -21 -21 -21 -20 -20 -20 -20 -19 -19 -19 -19 -19 -19 -18 -18 -18 -18
-24 -24 -24 -24 -24 -23 -23 -23 -23 -23 -22 -22 -22 -22 -22 -22 -22 -22 -22 -22 -22 -22 -22 -22 -21 -21 -21 -21 -21 -21 -21 -21 -21 -21 -21 -21 -20 -20 -20 -20 -20 -20 -20 -20
-24 -24 -24 -24 -24 -23 -23 -23 -23 -23 -23 -23 -22 -22 -22 -22 -22 -23 -23 -23 -23 -23 -22 -22 -22 -22 -22 -22 -22 -22 -22 -22 -22 -22 -22 -22 -22 -21 -21 -21 -21 -21 -21 -21
-25 -25 -24 -24 -24 -24 -24 -24 -24 -23 -23 -23 -23 -23 -23 -23 -23 -23 -23 -23 -23 -23 -23 -23 -23 -23 -23 -23 -23 -23 -22 -22 -22 -22 -22 -22 -22 -22 -22 -22 -22 -22 -22 -22
-25 -25 -25 -25 -25 -24 -24 -24 -24 -24 -24 -24 -24 -24 -24 -24 -24 -24 -24 -23 -23 -23 -23 -23 -23 -23 -23 -23 -23 -23 -23 -23 -22 -22 -22 -22 -22 -22 -22 -22 -22 -22 -22 -22
-26 -25 -25 -25 -25 -25 -25 -25 -25 -25 -24 -24 -24 -24 -24 -24 -24 -24 -24 -24 -24 -24 -23 -23 -23 -23 -23 -23 -23 -23 -23 -23 -23 -23 -23 -23 -23 -23 -23 -23 -23 -23 -23 -23
-26 -25 -25 -25 -25 -25 -25 -25 -25 -25 -25 -25 -24 -25 -25 -24 -24 -24 -24 -24 -24 -24 -24 -24 -24 -24 -24 -24 -24 -24 -24 -24 -24 -24 -24 -24 -24 -24 -24 -24 -24 -24 -24 -24
-26 -26 -26 -25 -25 -25 -25 -25 -25 -25 -25 -25 -25 -25 -25 -24 -24 -24 -24 -25 -24 -24 -24 -24 -24 -24 -24 -24 -24 -24 -24 -24 -24 -24 -24 -24 -24 -24 -24 -24 -24 -24 -24 -24
-25 -25 -25 -25 -25 -25 -25 -25 -25 -25 -25 -25 -24 -25 -25 -25 -25 -25 -24 -24 -24 -24 -24 -24 -24 -24 -24 -24 -25 -25 -25 -25 -25 -25 -25 -25 -25 -25 -25 -25 -25 -25 -25 -25
-25 -25 -25 -25 -25 -25 -25 -25 -25 -25 -25 -25 -25 -25 -25 -25 -24 -24 -24 -24 -24 -24 -24 -25 -25 -25 -25 -25 -25 -25 -26 -26 -26 -26 -26 -26 -26 -26 -27 -27 -27 -27 -28 -28
-25 -25 -25 -25 -25 -25 -25 -25 -25 -25 -25 -25 -25 -25 -25 -24 -24 -24 -25 -25 -25 -25 -25 -25 -26 -26 -26 -26 -27 -27 -27 -27 -27 -27 -27 -28 -28 -29 -29 -30 -30 -30 -30 -30
-25 -25 -25 -25 -25 -25 -25 -25 -25 -25 -25 -25 -25 -25 -25 -25 -25 -25 -25 -25 -26 -26 -26 -26 -26 -27 -27 -27 -27 -28 -28 -29 -29 -30 -30 -30 -30 -30 -31 -31 -31 -31 -31 -31
-25 -25 -25 -26 -25 -25 -25 -25 -25 -25 -25 -25 -25 -25 -25 -25 -25 -25 -25 -25 -26 -26 -26 -27 -27 -28 -28 -29 -29 -30 -30 -30 -31 -31 -32 -32 -32 -32 -33 -33 -33 -33 -34 -34
-26 -26 -26 -25 -25 -25 -25 -25 -25 -25 -25 -25 -25 -25 -25 -26 -26 -26 -26 -26 -27 -27 -28 -29 -29 -30 -30 -30 -31 -31 -32 -32 -33 -33 -34 -34 -34 -35 -35 -35 -35 -35 -35 -35
-26 -26 -25 -25 -25 -25 -25 -25 -25 -26 -26 -26 -27 -27 -27 -27 -27 -27 -27 -28 -28 -29 -30 -30 -30 -31 -31 -32 -32 -33 -34 -34 -35 -35 -35 -35 -35 -35 -35 -36 -36 -36 -36 -36
-25 -25 -25 -25 -25 -25 -26 -26 -26 -27 -27 -27 -27 -27 -28 -27 -27 -28 -28 -29 -30 -30 -31 -31 -31 -32 -33 -34 -34 -35 -36 -36 -36 -36 -36 -36 -36 -37 -37 -37 -37 -37 -37 -37

GFSNGP_500_temp_102.txt.gz
Temp
-22 -22 -23 -23 -23 -24 -24 -24 -23 -23 -23 -23 -23 -21 -21 -20 -20 -19 -19 -19 -19 -18 -18 -18 -18 -18 -17 -17 -17 -16 -16 -15 -15 -15 -14 -15 -14 -14 -14 -14 -14 -15 -16 -17
-22 -23 -24 -24 -24 -24 -25 -25 -24 -24 -24 -23 -22 -22 -21 -20 -20 -19 -19 -19 -19 -18 -18 -18 -18 -17 -17 -17 -16 -17 -16 -16 -15 -15 -14 -15 -14 -14 -14 -14 -14 -15 -16 -17
-23 -24 -24 -23 -25 -25 -25 -25 -25 -25 -25 -24 -22 -22 -21 -20 -20 -19 -19 -19 -18 -18 -18 -17 -17 -17 -17 -17 -16 -16 -17 -16 -16 -15 -15 -14 -15 -14 -14 -15 -15 -16 -16 -16
-24 -25 -24 -25 -25 -25 -25 -25 -25 -25 -24 -23 -23 -22 -21 -20 -20 -19 -19 -19 -18 -18 -18 -17 -17 -17 -17 -16 -16 -16 -16 -16 -16 -15 -14 -14 -15 -15 -15 -15 -15 -16 -16 -17
-26 -26 -25 -25 -25 -25 -25 -25 -24 -23 -23 -22 -22 -21 -21 -21 -20 -20 -19 -19 -18 -18 -17 -17 -17 -17 -17 -16 -16 -16 -16 -16 -16 -16 -16 -16 -15 -14 -16 -16 -16 -17 -17 -17
-25 -25 -25 -25 -25 -25 -24 -24 -23 -22 -22 -22 -22 -21 -21 -20 -21 -20 -19 -19 -18 -18 -18 -17 -17 -17 -17 -17 -17 -17 -17 -16 -16 -16 -16 -15 -16 -15 -14 -15 -16 -16 -17 -17
-25 -25 -25 -25 -24 -24 -24 -23 -22 -22 -22 -22 -22 -22 -22 -21 -21 -20 -20 -19 -19 -18 -18 -18 -18 -17 -17 -18 -17 -17 -17 -17 -17 -17 -16 -16 -16 -16 -16 -16 -16 -17 -17 -16
-25 -25 -24 -24 -24 -24 -23 -22 -22 -22 -22 -22 -22 -22 -22 -21 -21 -20 -20 -20 -19 -19 -19 -19 -18 -18 -18 -18 -17 -17 -17 -17 -17 -17 -17 -17 -17 -17 -17 -16 -16 -16 -16 -16
-25 -24 -24 -24 -24 -23 -23 -23 -23 -23 -23 -22 -22 -22 -21 -21 -21 -20 -20 -20 -20 -20 -20 -19 -19 -18 -18 -18 -18 -18 -18 -18 -17 -17 -17 -17 -17 -17 -17 -16 -17 -17 -16 -17
-25 -25 -24 -24 -23 -23 -23 -23 -22 -22 -22 -22 -22 -22 -21 -21 -21 -21 -21 -21 -20 -20 -20 -20 -19 -19 -19 -18 -19 -18 -19 -18 -18 -18 -18 -17 -17 -17 -17 -17 -17 -17 -17 -17
-25 -24 -24 -24 -24 -24 -24 -23 -23 -22 -22 -22 -22 -22 -22 -21 -21 -21 -21 -21 -21 -21 -21 -21 -20 -20 -20 -19 -19 -20 -20 -20 -19 -19 -19 -19 -18 -18 -18 -17 -17 -18 -17 -17
-25 -24 -24 -24 -24 -24 -24 -23 -23 -23 -22 -22 -22 -22 -22 -22 -22 -22 -22 -22 -22 -22 -22 -22 -22 -22 -21 -21 -21 -21 -21 -21 -21 -21 -20 -20 -20 -19 -19 -19 -19 -19 -19 -18
-25 -25 -24 -24 -24 -24 -24 -24 -23 -23 -23 -23 -23 -23 -23 -22 -22 -22 -22 -22 -22 -22 -23 -23 -23 -23 -23 -22 -22 -22 -22 -22 -22 -22 -22 -21 -21 -21 -21 -21 -21 -21 -21 -21
-24 -24 -24 -24 -24 -24 -24 -24 -24 -23 -23 -23 -23 -23 -23 -23 -23 -23 -23 -23 -23 -23 -23 -23 -23 -23 -23 -23 -23 -23 -22 -22 -22 -22 -22 -22 -22 -21 -21 -22 -22 -22 -22 -22
-24 -24 -24 -24 -24 -24 -24 -24 -24 -24 -23 -23 -23 -23 -24 -24 -23 -23 -23 -23 -23 -23 -23 -23 -23 -23 -23 -23 -23 -23 -23 -23 -23 -23 -22 -22 -22 -22 -22 -22 -22 -22 -22 -22
-25 -25 -24 -24 -24 -24 -24 -24 -24 -24 -24 -24 -24 -24 -24 -24 -24 -24 -24 -23 -24 -24 -24 -24 -24 -24 -24 -24 -24 -23 -23 -23 -23 -23 -23 -23 -23 -23 -23 -23 -23 -23 -23 -23
-26 -26 -25 -25 -25 -25 -25 -24 -24 -24 -24 -24 -24 -24 -24 -24 -24 -24 -24 -24 -24 -24 -24 -24 -24 -24 -24 -24 -24 -24 -24 -24 -24 -24 -24 -24 -24 -24 -24 -24 -24 -24 -24 -24
-26 -26 -26 -25 -25 -25 -25 -25 -25 -25 -25 -25 -26 -26 -25 -25 -25 -25 -24 -25 -25 -24 -24 -24 -24 -24 -24 -24 -24 -24 -24 -24 -24 -24 -24 -24 -24 -24 -24 -24 -24 -24 -24 -24
-26 -26 -26 -26 -25 -25 -25 -25 -25 -25 -25 -25 -26 -26 -26 -26 -25 -25 -25 -25 -25 -25 -25 -25 -25 -25 -25 -25 -24 -24 -24 -24 -24 -24 -24 -24 -24 -25 -25 -25 -25 -25 -25 -25
-26 -26 -26 -26 -25 -25 -25 -25 -25 -25 -25 -26 -26 -26 -26 -26 -26 -25 -25 -25 -25 -25 -25 -25 -25 -25 -25 -25 -25 -25 -25 -25 -25 -25 -25 -25 -25 -25 -25 -25 -25 -25 -25 -25
-26 -26 -25 -25 -25 -25 -25 -25 -25 -25 -26 -26 -26 -25 -26 -26 -25 -25 -25 -25 -25 -25 -25 -25 -25 -25 -25 -25 -25 -25 -25 -25 -25 -26 -26 -26 -26 -26 -26 -26 -26 -26 -26 -26
-26 -25 -25 -25 -25 -25 -25 -26 -25 -25 -26 -26 -26 -25 -25 -25 -25 -25 -25 -25 -25 -25 -25 -25 -25 -25 -25 -25 -25 -26 -26 -26 -26 -26 -26 -26 -26 -26 -27 -27 -27 -27 -28 -28
-25 -25 -25 -25 -25 -25 -26 -26 -26 -26 -25 -25 -26 -26 -26 -26 -26 -26 -26 -26 -26 -26 -26 -26 -26 -26 -26 -26 -27 -27 -27 -27 -27 -27 -28 -28 -29 -29 -30 -30 -30 -31 -31 -31
-25 -25 -25 -25 -25 -25 -26 -25 -25 -26 -26 -26 -26 -26 -26 -26 -26 -26 -26 -26 -26 -26 -26 -26 -27 -27 -27 -27 -27 -28 -28 -28 -29 -30 -31 -31 -32 -32 -33 -33 -33 -33 -34 -34
-26 -26 -26 -26 -26 -26 -25 -26 -26 -26 -26 -26 -26 -26 -26 -26 -26 -26 -27 -27 -27 -27 -27 -27 -27 -28 -28 -28 -29 -29 -30 -31 -32 -32 -33 -34 -34 -34 -34 -35 -35 -35 -35 -35
-27 -26 -26 -26 -26 -26 -25 -26 -26 -26 -26 -26 -26 -26 -26 -27 -27 -27 -27 -27 -27 -28 -28 -28 -29 -29 -29 -30 -31 -32 -33 -34 -34 -35 -35 -35 -36 -36 -36 -36 -36 -36 -36 -36
-27 -26 -26 -26 -25 -25 -25 -25 -26 -26 -26 -26 -26 -26 -27 -27 -27 -27 -28 -28 -28 -28 -29 -29 -30 -30 -31 -32 -33 -34 -35 -35 -35 -36 -36 -36 -36 -36 -36 -36 -36 -36 -36 -37

GFSNGP_500_temp_105.txt.gz
Temp
-22 -22 -21 -21 -22 -23 -23 -23 -22 -22 -23 -23 -24 -23 -22 -22 -21 -20 -20 -20 -19 -19 -18 -18 -18 -18 -18 -18 -17 -17 -17 -16 -16 -16 -16 -15 -15 -15 -16 -15 -15 -15 -15 -15
-22 -22 -22 -22 -23 -23 -23 -24 -24 -24 -23 -24 -24 -23 -22 -21 -21 -20 -20 -20 -19 -20 -19 -19 -18 -18 -18 -18 -17 -17 -17 -17 -16 -15 -15 -16 -16 -15 -14 -14 -14 -14 -14 -15
-22 -23 -23 -23 -24 -24 -24 -24 -24 -24 -25 -24 -24 -23 -22 -22 -21 -20 -21 -19 -19 -19 -19 -19 -18 -18 -17 -18 -18 -17 -17 -16 -16 -16 -16 -15 -15 -15 -15 -14 -14 -14 -14 -14
-23 -24 -24 -24 -25 -24 -24 -24 -25 -26 -25 -24 -24 -24 -22 -21 -22 -21 -20 -20 -20 -19 -19 -18 -18 -18 -17 -17 -18 -17 -17 -16 -16 -16 -16 -15 -15 -15 -14 -14 -15 -14 -14 -14
-25 -25 -25 -25 -25 -24 -24 -25 -25 -25 -25 -24 -23 -23 -23 -22 -21 -20 -21 -20 -19 -19 -18 -18 -18 -18 -18 -17 -17 -17 -17 -17 -17 -17 -16 -16 -16 -15 -15 -16 -15 -15 -16 -15
-25 -25 -25 -25 -25 -24 -24 -24 -24 -24 -24 -23 -23 -23 -22 -21 -21 -20 -20 -20 -20 -19 -19 -18 -18 -18 -18 -18 -18 -18 -17 -17 -17 -17 -17 -16 -16 -15 -16 -15 -15 -15 -16 -17
-25 -25 -25 -25 -24 -24 -24 -24 -24 -24 -23 -23 -23 -22 -22 -22 -22 -21 -20 -20 -20 -19 -19 -19 -18 -18 -18 -18 -18 -18 -17 -17 -17 -17 -16 -16 -16 -16 -16 -16 -15 -15 -16 -16
-25 -25 -25 -24 -24 -24 -24 -24 -23 -23 -23 -23 -23 -23 -23 -22 -22 -21 -21 -20 -20 -20 -19 -19 -19 -18 -18 -18 -18 -18 -18 -17 -17 -17 -17 -17 -16 -16 -16 -16 -16 -16 -16 -16
-25 -25 -25 -24 -24 -24 -24 -23 -23 -23 -23 -23 -23 -23 -23 -23 -22 -21 -21 -21 -20 -20 -20 -19 -19 -19 -19 -18 -18 -18 -18 -18 -18 -17 -17 -17 -17 -17 -17 -17 -17 -17 -17 -16
-25 -25 -25 -24 -24 -24 -24 -24 -24 -24 -23 -24 -23 -23 -22 -22 -22 -21 -21 -21 -21 -20 -20 -20 -20 -20 -19 -19 -19 -18 -18 -18 -18 -18 -18 -18 -18 -17 -17 -17 -17 -17 -17 -17
-25 -25 -25 -24 -24 -24 -24 -24 -24 -24 -23 -23 -23 -22 -22 -22 -22 -22 -22 -21 -21 -21 -21 -21 -21 -20 -20 -20 -20 -20 -20 -19 -19 -19 -19 -19 -19 -18 -18 -18 -18 -18 -18 -17
-25 -25 -25 -25 -24 -24 -25 -24 -23 -23 -23 -23 -23 -22 -22 -22 -22 -22 -22 -22 -22 -22 -22 -22 -22 -22 -22 -21 -21 -21 -21 -21 -21 -21 -21 -20 -20 -20 -20 -20 -20 -20 -20 -19
-25 -25 -25 -25 -25 -25 -24 -24 -24 -23 -23 -23 -23 -23 -23 -23 -23 -23 -23 -23 -22 -23 -23 -22 -22 -23 -23 -23 -23 -23 -22 -22 -22 -22 -22 -22 -22 -21 -21 -21 -21 -21 -21 -21
-25 -25 -24 -25 -25 -25 -25 -24 -24 -24 -23 -23 -23 -23 -23 -23 -23 -23 -23 -23 -23 -23 -23 -23 -23 -22 -22 -23 -23 -23 -22 -22 -22 -22 -22 -22 -22 -22 -22 -22 -22 -21 -22 -22
-25 -24 -24 -24 -24 -24 -24 -24 -24 -24 -24 -24 -23 -23 -23 -23 -24 -24 -24 -24 -23 -23 -23 -23 -24 -23 -23 -23 -23 -24 -24 -23 -23 -23 -23 -23 -23 -23 -23 -23 -23 -23 -23 -23
-25 -25 -24 -24 -24 -24 -24 -24 -24 -24 -24 -24 -24 -24 -24 -24 -24 -24 -24 -24 -24 -24 -24 -24 -24 -24 -24 -24 -24 -24 -24 -24 -24 -24 -23 -23 -23 -23 -23 -23 -23 -23 -23 -23
-26 -26 -25 -25 -25 -25 -24 -24 -24 -24 -24 -24 -24 -24 -24 -24 -24 -24 -24 -24 -24 -24 -24 -24 -24 -24 -24 -24 -24 -24 -24 -24 -24 -24 -24 -24 -24 -24 -24 -24 -24 -24 -24 -24
-26 -26 -26 -26 -26 -25 -25 -25 -25 -25 -25 -25 -25 -25 -25 -26 -26 -26 -25 -25 -25 -25 -25 -25 -25 -24 -24 -24 -24 -24 -24 -24 -24 -24 -24 -24 -24 -24 -24 -24 -24 -24 -24 -24
-26 -26 -26 -26 -26 -26 -26 -25 -25 -25 -25 -25 -25 -26 -26 -26 -26 -26 -26 -26 -26 -26 -25 -25 -25 -25 -25 -25 -25 -24 -24 -24 -24 -24 -24 -24 -24 -25 -25 -25 -25 -25 -25 -25
-26 -26 -26 -26 -26 -26 -26 -26 -26 -26 -26 -26 -26 -26 -26 -26 -26 -26 -26 -26 -26 -26 -25 -25 -25 -25 -25 -25 -24 -24 -25 -25 -25 -25 -25 -25 -25 -25 -25 -25 -25 -26 -26 -26
-26 -26 -26 -26 -26 -26 -26 -26 -26 -26 -26 -26 -26 -26 -26 -26 -26 -26 -26 -26 -26 -25 -25 -25 -25 -25 -25 -25 -25 -25 -25 -25 -25 -25 -25 -26 -26 -26 -26 -27 -27 -26 -26 -26
-26 -26 -26 -26 -26 -26 -26 -26 -26 -26 -26 -26 -26 -26 -26 -26 -26 -26 -26 -26 -26 -26 -26 -26 -26 -26 -26 -26 -26 -26 -26 -26 -26 -26 -26 -27 -27 -27 -27 -27 -27 -27 -27 -28
-26 -26 -26 -26 -26 -26 -25 -26 -26 -26 -26 -26 -26 -26 -26 -26 -26 -26 -26 -26 -26 -26 -26 -26 -26 -26 -26 -26 -26 -26 -27 -27 -27 -27 -28 -28 -28 -28 -29 -30 -30 -31 -32 -32
-26 -26 -26 -25 -25 -25 -25 -25 -26 -26 -26 -26 -26 -26 -26 -26 -26 -26 -26 -26 -26 -26 -27 -27 -27 -27 -27 -27 -27 -27 -28 -28 -28 -29 -29 -30 -31 -32 -33 -33 -34 -34 -34 -35
-26 -26 -26 -26 -26 -26 -26 -26 -26 -25 -25 -25 -25 -25 -26 -26 -26 -26 -26 -27 -27 -27 -27 -27 -27 -27 -28 -28 -29 -29 -29 -30 -31 -32 -33 -33 -34 -35 -35 -35 -35 -35 -35 -35
-27 -27 -27 -26 -26 -26 -26 -25 -25 -25 -25 -25 -25 -26 -26 -26 -26 -27 -27 -27 -27 -27 -28 -28 -28 -28 -29 -29 -30 -30 -31 -32 -33 -34 -35 -35 -35 -35 -35 -35 -35 -35 -35 -35
-27 -27 -27 -27 -26 -26 -26 -25 -25 -25 -25 -26 -26 -26 -26 -27 -27 -27 -27 -27 -28 -28 -28 -28 -29 -29 -30 -30 -31 -32 -33 -34 -35 -35 -35 -35 -35 -36 -36 -36 -36 -36 -36 -36

GFSNGP_500_temp_108.txt.gz
Temp
-23 -22 -22 -22 -22 -22 -22 -22 -21 -21 -21 -21 -22 -22 -21 -22 -22 -21 -21 -21 -21 -19 -19 -18 -18 -18 -18 -18 -18 -17 -17 -16 -16 -15 -15 -15 -15 -16 -16 -16 -16 -15 -15 -15
-22 -22 -22 -22 -22 -22 -23 -23 -22 -22 -21 -23 -23 -22 -23 -23 -23 -22 -21 -21 -20 -20 -19 -19 -19 -19 -18 -18 -18 -18 -17 -17 -16 -15 -15 -15 -15 -16 -16 -16 -15 -15 -15 -15
-22 -23 -23 -23 -23 -23 -23 -23 -23 -23 -24 -24 -23 -23 -24 -23 -23 -22 -21 -21 -21 -20 -21 -20 -19 -19 -18 -18 -18 -18 -17 -17 -17 -16 -16 -16 -15 -16 -16 -15 -15 -14 -15 -14
-22 -23 -23 -23 -24 -24 -23 -24 -24 -25 -25 -25 -25 -24 -24 -24 -24 -22 -22 -21 -22 -21 -21 -20 -19 -19 -18 -18 -18 -18 -18 -17 -17 -17 -16 -16 -16 -16 -16 -15 -14 -14 -15 -15
-23 -24 -24 -24 -24 -25 -24 -24 -24 -25 -26 -26 -25 -24 -23 -23 -23 -22 -22 -22 -22 -21 -20 -19 -19 -18 -18 -18 -18 -18 -18 -17 -17 -17 -17 -17 -16 -16 -15 -15 -15 -15 -14 -14
-25 -26 -26 -26 -26 -25 -25 -24 -24 -24 -25 -25 -24 -24 -23 -23 -22 -22 -22 -22 -21 -21 -20 -19 -19 -19 -18 -18 -18 -18 -18 -18 -18 -18 -17 -16 -16 -16 -15 -16 -15 -15 -15 -15
-26 -26 -25 -25 -25 -25 -24 -24 -24 -24 -24 -24 -23 -23 -23 -23 -22 -23 -22 -22 -21 -20 -20 -19 -19 -19 -19 -18 -18 -18 -18 -18 -17 -17 -18 -17 -16 -16 -16 -16 -16 -15 -15 -15
-25 -25 -25 -25 -24 -24 -24 -24 -23 -23 -23 -23 -23 -23 -24 -24 -23 -22 -22 -21 -21 -20 -20 -19 -19 -19 -19 -19 -18 -18 -18 -18 -18 -18 -17 -17 -17 -16 -16 -16 -16 -16 -16 -16
-25 -25 -25 -24 -24 -24 -24 -24 -24 -23 -23 -23 -23 -23 -23 -23 -23 -22 -22 -21 -21 -21 -20 -20 -19 -19 -19 -18 -18 -18 -18 -18 -18 -18 -18 -18 -18 -17 -17 -17 -17 -17 -16 -16
-25 -25 -25 -25 -24 -24 -24 -23 -23 -23 -23 -23 -23 -23 -23 -23 -23 -22 -22 -21 -21 -21 -21 -20 -20 -20 -20 -19 -19 -19 -19 -19 -19 -18 -18 -18 -18 -18 -18 -17 -18 -17 -17 -17
-25 -25 -25 -25 -24 -24 -24 -24 -23 -23 -23 -23 -23 -23 -23 -23 -23 -22 -22 -22 -21 -21 -21 -21 -21 -20 -20 -20 -20 -20 -20 -19 -20 -20 -20 -19 -19 -18 -18 -18 -18 -18 -18 -17
-25 -25 -25 -24 -24 -25 -24 -24 -24 -23 -24 -23 -23 -23 -23 -23 -23 -23 -23 -23 -23 -23 -22 -22 -22 -22 -22 -21 -21 -21 -21 -21 -21 -20 -21 -21 -21 -21 -20 -20 -20 -20 -19 -19
-25 -25 -25 -25 -25 -25 -25 -24 -24 -24 -23 -23 -23 -23 -23 -23 -23 -23 -23 -23 -23 -23 -23 -23 -23 -23 -23 -23 -23 -22 -22 -22 -22 -21 -22 -22 -22 -22 -22 -22 -21 -21 -21 -21
-25 -25 -25 -25 -25 -25 -25 -24 -24 -24 -24 -23 -23 -23 -23 -23 -23 -23 -23 -23 -23 -23 -22 -22 -23 -23 -23 -23 -23 -23 -23 -23 -23 -22 -22 -22 -22 -22 -22 -22 -22 -22 -22 -22
-25 -25 -25 -25 -25 -25 -25 -25 -24 -24 -24 -24 -24 -24 -24 -24 -23 -23 -23 -23 -23 -23 -23 -23 -23 -23 -23 -23 -23 -23 -23 -24 -24 -24 -23 -23 -23 -23 -23 -23 -23 -23 -23 -23
-25 -25 -25 -24 -25 -24 -24 -24 -24 -24 -24 -24 -24 -24 -24 -24 -24 -24 -24 -24 -24 -23 -23 -23 -23 -23 -23 -24 -24 -24 -24 -24 -24 -23 -23 -23 -23 -23 -23 -23 -23 -23 -23 -24
-25 -25 -25 -25 -25 -24 -24 -24 -24 -24 -24 -24 -24 -24 -24 -24 -24 -24 -24 -24 -24 -24 -24 -24 -24 -24 -25 -25 -25 -24 -24 -24 -23 -24 -24 -24 -24 -24 -24 -24 -24 -24 -24 -24
-26 -26 -26 -25 -25 -25 -25 -25 -25 -25 -25 -25 -25 -25 -25 -25 -25 -25 -25 -25 -26 -25 -25 -25 -25 -25 -25 -25 -25 -24 -24 -24 -24 -24 -24 -24 -24 -24 -24 -24 -24 -24 -24 -24
-26 -26 -26 -26 -26 -26 -26 -26 -26 -25 -25 -25 -25 -25 -25 -25 -26 -26 -26 -26 -26 -26 -26 -26 -26 -25 -25 -25 -25 -25 -25 -25 -24 -24 -24 -24 -24 -24 -24 -24 -24 -24 -24 -25
-27 -26 -26 -26 -26 -26 -26 -26 -26 -26 -26 -26 -26 -26 -26 -26 -26 -26 -26 -26 -26 -26 -26 -26 -25 -25 -25 -25 -25 -25 -25 -25 -25 -25 -25 -25 -25 -25 -25 -25 -25 -25 -25 -25
-27 -26 -26 -26 -26 -26 -26 -26 -26 -26 -26 -26 -26 -26 -26 -26 -26 -26 -26 -26 -26 -26 -26 -25 -25 -26 -26 -25 -26 -26 -26 -25 -25 -25 -25 -25 -25 -26 -26 -26 -26 -26 -27 -27
-27 -26 -26 -26 -26 -26 -26 -26 -26 -26 -26 -26 -25 -25 -26 -26 -26 -26 -26 -26 -26 -26 -26 -26 -26 -26 -26 -26 -26 -26 -26 -26 -26 -26 -26 -26 -27 -27 -27 -28 -28 -28 -27 -28
-26 -26 -26 -26 -26 -26 -26 -26 -26 -26 -26 -26 -26 -25 -26 -26 -25 -25 -26 -26 -26 -26 -26 -26 -26 -26 -26 -26 -26 -26 -26 -26 -26 -27 -27 -28 -28 -28 -28 -28 -29 -30 -31 -31
-26 -26 -26 -26 -26 -26 -26 -25 -25 -25 -26 -25 -25 -25 -25 -25 -26 -26 -26 -26 -26 -26 -26 -26 -26 -26 -26 -27 -26 -27 -27 -27 -28 -28 -28 -29 -29 -30 -31 -32 -33 -33 -34 -34
-26 -26 -26 -26 -26 -26 -26 -26 -26 -26 -25 -25 -25 -25 -25 -25 -26 -26 -26 -26 -26 -26 -26 -26 -27 -27 -27 -27 -27 -28 -28 -29 -29 -29 -30 -31 -32 -33 -34 -34 -34 -35 -35 -35
-27 -27 -27 -27 -27 -27 -26 -26 -26 -26 -25 -25 -25 -25 -25 -26 -26 -26 -26 -26 -26 -27 -27 -27 -27 -27 -28 -28 -29 -29 -29 -30 -31 -32 -33 -34 -34 -35 -35 -35 -35 -35 -36 -36
-27 -27 -27 -27 -27 -27 -26 -26 -26 -26 -26 -26 -26 -26 -25 -26 -26 -26 -26 -27 -27 -27 -27 -28 -28 -28 -29 -29 -30 -30 -31 -32 -33 -34 -35 -35 -35 -35 -36 -36 -36 -36 -36 -36

GFSNGP_500_temp_111.txt.gz
Temp
-23 -23 -23 -23 -23 -23 -22 -22 -22 -22 -22 -22 -22 -22 -20 -21 -20 -20 -20 -20 -20 -20 -21 -20 -19 -19 -19 -18 -18 -17 -16 -16 -16 -15 -16 -16 -16 -16 -16 -16 -16 -16 -16 -17
-24 -24 -23 -23 -22 -22 -22 -22 -22 -22 -22 -23 -21 -21 -21 -21 -21 -21 -21 -22 -22 -22 -22 -21 -20 -19 -19 -18 -18 -17 -17 -17 -16 -16 -16 -15 -16 -16 -16 -16 -16 -15 -16 -17
-23 -23 -23 -22 -22 -22 -22 -22 -22 -22 -23 -23 -22 -22 -23 -23 -23 -23 -23 -23 -22 -21 -21 -20 -20 -20 -20 -19 -18 -18 -18 -17 -17 -17 -16 -16 -16 -16 -15 -15 -16 -16 -16 -16
-23 -22 -22 -23 -22 -23 -23 -23 -23 -23 -24 -24 -24 -24 -24 -24 -24 -23 -23 -22 -22 -21 -21 -21 -21 -20 -19 -18 -18 -18 -18 -18 -17 -16 -16 -16 -15 -16 -15 -15 -15 -15 -15 -15
-23 -23 -22 -22 -23 -23 -23 -24 -24 -25 -25 -25 -25 -25 -25 -25 -24 -24 -23 -22 -22 -21 -21 -21 -21 -20 -19 -18 -18 -18 -18 -18 -18 -17 -17 -17 -16 -16 -15 -15 -15 -15 -15 -15
-23 -24 -24 -25 -25 -25 -25 -25 -25 -24 -24 -24 -25 -25 -24 -24 -24 -23 -23 -22 -22 -21 -21 -21 -20 -20 -19 -19 -18 -18 -18 -18 -18 -18 -17 -17 -17 -17 -16 -16 -16 -15 -15 -15
-25 -26 -26 -25 -25 -25 -25 -24 -24 -24 -24 -24 -24 -24 -24 -24 -23 -23 -23 -23 -22 -22 -21 -21 -20 -20 -19 -19 -19 -18 -18 -18 -18 -18 -17 -17 -17 -17 -17 -17 -16 -16 -16 -15
-25 -25 -25 -25 -25 -24 -24 -24 -24 -23 -23 -24 -24 -24 -24 -23 -23 -23 -22 -23 -22 -22 -21 -20 -20 -20 -19 -19 -19 -18 -18 -18 -18 -18 -18 -18 -17 -17 -17 -17 -16 -16 -16 -16
-25 -25 -25 -24 -24 -24 -24 -24 -24 -23 -23 -23 -23 -23 -23 -23 -23 -22 -22 -22 -22 -22 -21 -21 -21 -21 -20 -20 -19 -19 -19 -19 -18 -18 -18 -19 -18 -18 -18 -18 -17 -17 -17 -16
-25 -25 -25 -24 -24 -24 -24 -24 -23 -23 -23 -23 -23 -23 -23 -23 -23 -22 -22 -22 -22 -22 -21 -21 -21 -20 -20 -20 -20 -20 -19 -19 -19 -19 -19 -19 -19 -19 -18 -18 -18 -18 -18 -17
-25 -25 -25 -25 -24 -24 -24 -24 -23 -23 -23 -23 -23 -23 -23 -23 -23 -23 -23 -23 -23 -23 -22 -21 -21 -21 -21 -21 -20 -20 -20 -20 -20 -20 -20 -20 -20 -20 -19 -19 -19 -19 -19 -18
-25 -25 -25 -25 -25 -24 -24 -23 -23 -23 -23 -23 -23 -23 -23 -23 -23 -23 -23 -23 -23 -22 -22 -22 -22 -22 -21 -21 -21 -21 -21 -21 -21 -21 -21 -21 -21 -21 -21 -21 -21 -20 -20 -20
-25 -25 -25 -25 -25 -24 -24 -24 -24 -23 -24 -23 -23 -23 -23 -23 -23 -23 -23 -23 -23 -23 -23 -23 -22 -22 -22 -22 -23 -23 -22 -22 -22 -22 -22 -21 -21 -21 -21 -21 -21 -22 -22 -21
-25 -25 -25 -25 -25 -25 -24 -24 -24 -24 -24 -23 -23 -23 -23 -23 -23 -23 -23 -23 -23 -23 -23 -23 -23 -23 -23 -23 -23 -23 -23 -23 -23 -23 -23 -23 -23 -23 -22 -22 -22 -22 -22 -22
-25 -25 -25 -25 -25 -25 -25 -25 -24 -24 -24 -24 -24 -24 -24 -24 -24 -24 -24 -23 -23 -23 -23 -23 -23 -23 -23 -23 -23 -23 -23 -24 -24 -24 -24 -23 -23 -23 -23 -23 -23 -23 -23 -23
-25 -25 -25 -25 -25 -25 -25 -25 -24 -24 -24 -24 -24 -24 -24 -24 -24 -24 -24 -24 -24 -23 -23 -23 -23 -23 -23 -23 -24 -24 -24 -24 -24 -24 -24 -24 -24 -23 -23 -23 -23 -23 -23 -23
-25 -25 -25 -25 -25 -25 -25 -24 -24 -24 -24 -24 -24 -24 -24 -24 -24 -24 -24 -24 -24 -24 -24 -24 -24 -24 -24 -24 -24 -24 -24 -24 -24 -24 -24 -24 -24 -24 -24 -24 -24 -24 -24 -24
-25 -25 -25 -25 -25 -25 -25 -24 -24 -24 -24 -24 -24 -24 -24 -24 -24 -24 -24 -24 -24 -25 -25 -25 -25 -25 -25 -25 -25 -25 -25 -24 -24 -24 -24 -24 -24 -24 -24 -24 -24 -24 -24 -24
-26 -26 -25 -25 -25 -25 -25 -25 -25 -25 -25 -25 -25 -25 -25 -25 -25 -25 -25 -25 -25 -25 -26 -25 -25 -25 -25 -25 -25 -25 -24 -24 -24 -24 -24 -24 -24 -24 -24 -24 -24 -24 -24 -24
-26 -26 -26 -26 -26 -26 -26 -25 -25 -25 -25 -25 -25 -25 -25 -25 -25 -25 -25 -25 -25 -25 -25 -25 -25 -25 -25 -25 -25 -25 -25 -25 -25 -25 -25 -25 -25 -25 -25 -25 -25 -25 -25 -25
-27 -26 -26 -26 -26 -26 -26 -26 -26 -26 -25 -25 -25 -25 -25 -25 -25 -25 -25 -25 -25 -25 -25 -25 -25 -25 -25 -25 -25 -25 -25 -25 -25 -25 -25 -25 -25 -25 -25 -25 -25 -25 -26 -26
-27 -27 -27 -26 -26 -26 -26 -26 -26 -26 -25 -25 -25 -25 -25 -25 -25 -25 -25 -25 -25 -25 -25 -25 -26 -25 -25 -25 -26 -26 -26 -26 -26 -26 -26 -26 -26 -26 -26 -27 -27 -27 -27 -28
-27 -27 -26 -26 -26 -26 -26 -26 -26 -26 -25 -25 -26 -26 -25 -25 -25 -25 -25 -25 -25 -25 -25 -25 -25 -26 -26 -26 -26 -26 -26 -26 -26 -27 -27 -27 -27 -27 -28 -28 -28 -29 -29 -30
-27 -27 -26 -26 -26 -26 -26 -26 -26 -26 -26 -26 -26 -26 -25 -25 -25 -25 -25 -25 -25 -25 -25 -26 -26 -26 -26 -26 -26 -26 -27 -27 -27 -27 -28 -28 -29 -29 -29 -30 -31 -32 -33 -33
-27 -27 -26 -26 -26 -26 -26 -26 -26 -26 -26 -26 -26 -26 -26 -25 -25 -25 -25 -25 -25 -25 -26 -26 -26 -26 -27 -27 -27 -27 -27 -28 -28 -29 -29 -29 -30 -31 -32 -33 -34 -34 -34 -34
-27 -26 -26 -26 -26 -27 -27 -27 -27 -26 -26 -26 -26 -26 -26 -26 -25 -25 -25 -26 -26 -26 -26 -27 -27 -27 -27 -27 -27 -28 -28 -29 -29 -30 -31 -32 -33 -34 -34 -34 -35 -35 -35 -35
-27 -27 -27 -27 -27 -27 -27 -27 -27 -27 -26 -26 -26 -26 -26 -25 -25 -26 -26 -26 -26 -27 -27 -27 -27 -27 -27 -28 -29 -29 -30 -30 -31 -32 -34 -34 -35 -35 -35 -36 -36 -36 -36 -36

GFSNGP_500_temp_114.txt.gz
Temp
-22 -22 -23 -22 -22 -23 -23 -23 -23 -23 -23 -23 -23 -23 -22 -21 -21 -21 -20 -20 -19 -19 -19 -19 -19 -19 -19 -19 -19 -19 -18 -18 -17 -17 -16 -16 -16 -16 -16 -15 -15 -14 -15 -14
-22 -22 -22 -23 -22 -23 -23 -23 -23 -23 -22 -23 -23 -22 -22 -22 -22 -21 -21 -20 -20 -20 -20 -21 -21 -21 -20 -19 -19 -19 -18 -18 -17 -17 -17 -16 -16 -16 -16 -15 -16 -15 -15 -15
-23 -23 -23 -23 -23 -23 -22 -23 -23 -23 -23 -22 -22 -23 -22 -22 -22 -21 -21 -21 -21 -21 -21 -21 -21 -20 -20 -19 -19 -19 -19 -18 -18 -18 -17 -17 -16 -16 -16 -15 -15 -15 -16 -15
-23 -23 -23 -22 -22 -22 -22 -22 -22 -23 -22 -23 -23 -23 -22 -23 -23 -23 -23 -23 -22 -22 -22 -22 -21 -20 -20 -20 -19 -18 -19 -18 -18 -18 -17 -17 -16 -16 -16 -16 -15 -15 -15 -15
-23 -23 -22 -22 -22 -23 -23 -23 -23 -24 -23 -24 -24 -24 -24 -25 -25 -24 -24 -23 -22 -22 -22 -21 -21 -20 -20 -19 -19 -18 -18 -18 -18 -18 -18 -17 -17 -16 -16 -16 -16 -16 -16 -15
-23 -23 -23 -23 -23 -24 -24 -24 -25 -25 -25 -25 -25 -24 -25 -25 -25 -24 -24 -24 -23 -22 -22 -21 -21 -20 -20 -20 -19 -19 -18 -18 -18 -18 -18 -17 -17 -17 -16 -16 -16 -15 -15 -15
-24 -24 -24 -25 -25 -25 -25 -25 -25 -25 -24 -24 -24 -24 -24 -24 -24 -24 -24 -23 -23 -22 -22 -21 -21 -21 -20 -20 -20 -20 -19 -19 -19 -18 -18 -18 -17 -17 -17 -17 -17 -16 -16 -16
-25 -25 -24 -25 -24 -24 -24 -24 -24 -24 -24 -24 -24 -24 -24 -24 -24 -23 -23 -23 -23 -22 -22 -22 -21 -21 -21 -20 -21 -20 -20 -19 -19 -19 -19 -19 -18 -18 -18 -17 -17 -17 -16 -16
-25 -25 -25 -25 -24 -24 -24 -24 -24 -24 -24 -24 -24 -24 -24 -24 -23 -23 -23 -22 -22 -22 -22 -22 -22 -21 -21 -21 -21 -21 -20 -20 -20 -20 -20 -20 -19 -20 -19 -19 -18 -18 -18 -17
-25 -25 -25 -25 -24 -24 -24 -24 -24 -24 -24 -24 -24 -24 -24 -24 -23 -23 -23 -23 -22 -22 -22 -22 -22 -22 -22 -22 -21 -21 -21 -20 -20 -20 -20 -20 -20 -20 -20 -20 -19 -19 -19 -18
-24 -25 -25 -25 -24 -24 -24 -24 -24 -23 -23 -23 -23 -24 -23 -23 -23 -23 -23 -23 -23 -23 -23 -23 -23 -22 -22 -22 -22 -21 -21 -21 -21 -21 -21 -21 -21 -20 -21 -20 -20 -20 -20 -19
-25 -25 -25 -25 -25 -24 -24 -24 -23 -23 -23 -23 -23 -23 -23 -23 -23 -23 -23 -23 -23 -23 -23 -23 -23 -23 -23 -23 -22 -22 -22 -22 -22 -22 -21 -21 -21 -21 -21 -21 -21 -21 -21 -21
-25 -25 -25 -25 -25 -24 -24 -24 -24 -24 -24 -23 -24 -24 -24 -23 -24 -23 -23 -23 -23 -23 -23 -23 -23 -23 -23 -23 -23 -23 -22 -22 -22 -22 -22 -22 -22 -22 -22 -22 -22 -22 -22 -22
-25 -25 -25 -25 -25 -25 -24 -24 -24 -24 -24 -24 -24 -24 -24 -24 -24 -24 -23 -23 -23 -23 -23 -23 -23 -23 -23 -23 -23 -23 -23 -23 -23 -23 -23 -23 -23 -23 -23 -23 -23 -23 -23 -23
-25 -25 -25 -25 -25 -25 -25 -24 -24 -24 -24 -24 -24 -24 -24 -24 -24 -24 -24 -24 -24 -24 -23 -23 -23 -23 -23 -23 -23 -23 -23 -23 -23 -24 -24 -24 -24 -23 -23 -23 -23 -23 -23 -23
-25 -25 -25 -25 -25 -25 -25 -25 -25 -24 -24 -24 -24 -24 -24 -24 -24 -24 -24 -24 -24 -24 -23 -23 -23 -23 -23 -23 -24 -24 -24 -24 -24 -24 -24 -24 -24 -24 -24 -24 -24 -24 -24 -24
-25 -25 -25 -25 -25 -25 -25 -25 -25 -24 -24 -24 -24 -24 -24 -24 -24 -24 -24 -24 -24 -24 -24 -24 -24 -24 -25 -25 -25 -25 -25 -25 -24 -24 -24 -24 -24 -24 -24 -24 -24 -24 -24 -24
-25 -25 -25 -25 -25 -25 -25 -25 -24 -24 -24 -24 -24 -24 -24 -24 -24 -24 -24 -24 -24 -25 -25 -25 -25 -25 -25 -25 -25 -25 -25 -24 -24 -24 -24 -24 -24 -24 -24 -24 -24 -24 -24 -24
-26 -26 -25 -25 -25 -25 -25 -25 -24 -24 -24 -24 -24 -24 -24 -25 -25 -25 -25 -25 -25 -25 -25 -25 -25 -25 -25 -25 -25 -25 -25 -24 -24 -24 -24 -24 -24 -24 -24 -24 -24 -24 -24 -24
-26 -26 -26 -26 -25 -25 -25 -25 -25 -25 -25 -25 -25 -25 -25 -25 -25 -25 -25 -25 -25 -25 -25 -25 -25 -25 -25 -25 -25 -25 -24 -24 -24 -25 -25 -25 -25 -24 -24 -24 -24 -24 -24 -25
-27 -26 -26 -26 -26 -26 -26 -26 -25 -25 -25 -25 -25 -25 -25 -25 -25 -25 -25 -25 -25 -25 -25 -25 -25 -25 -25 -25 -25 -25 -25 -25 -25 -25 -25 -25 -25 -25 -25 -25 -25 -25 -26 -26
-27 -27 -27 -27 -27 -27 -26 -26 -26 -26 -26 -26 -26 -26 -26 -25 -25 -25 -25 -25 -25 -25 -25 -25 -25 -25 -25 -25 -25 -25 -25 -25 -25 -25 -25 -26 -26 -26 -26 -26 -27 -27 -27 -27
-27 -27 -27 -27 -27 -27 -26 -26 -26 -26 -26 -26 -25 -25 -25 -26 -25 -25 -25 -25 -25 -25 -25 -25 -25 -25 -25 -25 -25 -25 -25 -26 -26 -26 -26 -26 -27 -27 -27 -28 -28 -28 -29 -29
-27 -27 -27 -27 -26 -26 -26 -26 -26 -26 -26 -25 -25 -25 -26 -26 -26 -25 -25 -25 -25 -25 -25 -25 -25 -25 -25 -25 -26 -26 -26 -26 -27 -27 -27 -27 -28 -28 -29 -29 -29 -31 -32 -33
-27 -27 -27 -26 -26 -26 -26 -26 -26 -26 -26 -26 -26 -26 -26 -26 -26 -26 -26 -25 -25 -25 -25 -25 -25 -25 -26 -26 -27 -27 -27 -27 -27 -27 -28 -28 -29 -29 -30 -32 -33 -33 -34 -34
-27 -27 -27 -27 -27 -26 -26 -26 -26 -27 -27 -27 -27 -27 -27 -26 -26 -26 -26 -25 -25 -25 -25 -25 -26 -26 -27 -27 -27 -27 -27 -28 -28 -29 -29 -30 -31 -32 -33 -34 -34 -34 -35 -35
-27 -27 -27 -27 -27 -27 -27 -27 -27 -27 -27 -27 -27 -27 -27 -26 -26 -26 -26 -26 -26 -25 -26 -26 -27 -27 -27 -27 -28 -28 -28 -29 -29 -30 -31 -32 -33 -34 -34 -34 -35 -35 -35 -35